Regional Weather Roundup
Issued by NWS

Home | Current Version | Previous Version | Text Only | Print | Product List | Glossary Off
Versions: 1 2 3 4 5 6 7 8 9 10 11 12 13 14 15 16 17 18 19 20 21 22 23 24 25 26 27 28 29 30 31 32 33 34 35 36 37 38 39 40 41 42 43 44 45 46 47 48 49 50

000
ASUS45 KTFX 200119
RWRMT
MONTANA HOURLY WEATHER ROUNDUP
NATIONAL WEATHER SERVICE GREAT FALLS MT
719 PM MDT FRI SEP 19 2014

NOTE: "FAIR" INDICATES FEW OR NO CLOUDS BELOW 12000 FEET WITH NO
SIGNIFICANT WEATHER AND/OR OBSTRUCTIONS TO VISIBILITY.

* THESE STATIONS ARE NOT UNDER NWS QUALITY CONTROL. THEY DO NOT
   REPORT WEATHER SUCH AS PRECIPITATION OR FOG.

MTZ001>007-043-200200-
WEST OF THE DIVIDE
CITY           SKY/WX    TMP DP  RH WIND       PRES   REMARKS
KALISPELL      CLOUDY    68  45  44 SW5       30.03R
MISSOULA       CLOUDY    70  45  41 W7        30.08S
BUTTE          PTCLDY    64  39  40 NW12      30.14R
MULLAN PASS    MOCLDY    52  45  77 VRB5      30.19F
* ESSEX        N/A       61  45  56 W2         N/A
* LINCOLN      N/A       63  42  46 W5G14      N/A
* LOOKOUT PASS N/A       59  47  65 N1         N/A
* POLSON       N/A       67  43  42 W2         N/A
* RONAN APT    MOCLDY    72  45  38 SW7        N/A
* SEELEY LAKE  N/A       66  44  45 SW6G14     N/A
* THOMP F APT  PTCLDY    71  40  33 SW6G11     N/A
$$

MTZ008-052>055-200200-
SOUTHWEST MONTANA
CITY           SKY/WX    TMP DP  RH WIND       PRES   REMARKS
BOZEMAN        CLOUDY    66  43  43 NW5       30.05R
DILLON         PTCLDY    72  43  35 N6        30.07R
W YELLOWSTONE  PTCLDY    59  45  60 SW5       30.16R
* THREE FORKS  PTCLDY    72  54  53 NW10G16    N/A
* BOULDER HILL N/A       59  37  44 SW1        N/A
* MONIDA PASS  N/A       68  41  38 S2         N/A
* RAYNOLDS PAS N/A       66  55  68 W7G12      N/A
* WHITEHALL    N/A       73  39  29 NW12G22    N/A
* WISE RIVER   N/A       67  38  35 NW14G24    N/A
$$

MTZ009>010-012-014-046-048-049-054-200200-
EAST SLOPES AND CENTRAL MONTANA
CITY           SKY/WX    TMP DP  RH WIND       PRES   REMARKS
CUT BANK       CLEAR     64  43  47 SW15      29.93R
GREAT FALLS    PTCLDY    66  41  40 W15       29.96R
HELENA         PTCLDY    72  39  30 NW14      30.02R
MALMSTROM AFB  PTCLDY    70  39  32 W17G23    29.96S
* CONRAD       CLEAR     66  48  52 SW14G21    N/A
* EAST GLACIER N/A       60  38  44 W26G37     N/A
* MONARCH      N/A       60  38  44 W16        N/A
* PENDROY      N/A       63  44  50 NW13G22    N/A
* ROGERS PASS  N/A       59  40  50 E4G11      N/A
* SAINT MARY   N/A       63  41  45 S14G28     N/A
* SWEET GRASS  N/A       68  39  35 NW17G26    N/A
* WHITE SULPH  N/A       63  36  37 W8G24      N/A
$$

MTZ011-013-016-021-035-040-045-047-050-051-200200-
NORTH CENTRAL MONTANA
CITY           SKY/WX    TMP DP  RH WIND       PRES   REMARKS
HAVRE          CLOUDY    73  45  37 W8        29.83R
LEWISTOWN      CLOUDY    70  43  38 W17       29.98R
* CHINOOK      CLEAR     70  52  53 CALM      29.82R
* CHESTER      N/A       72  43  35 W17G28     N/A
* DENTON       N/A       71  43  37 W11        N/A
* GEYSER       N/A       64  43  47 W17G22     N/A
* JUDITH GAP   N/A       63  49  60 N8         N/A
* LOMA         N/A       73  43  34 W17G24     N/A
$$

MTZ017>020-022>027-061-062-200200-
NORTHEAST MONTANA
CITY           SKY/WX    TMP DP  RH WIND       PRES   REMARKS
GLASGOW        PTCLDY    70  54  57 NW5       29.80R
GLENDIVE       CLEAR     66  48  52 NW8       29.85R
JORDAN         PTCLDY    70  48  46 W7        29.85R
SIDNEY         PTCLDY    63  52  68 NW6       29.81R
WOLF POINT     PTCLDY    70  52  53 W5        29.79R
* BEAVER HILL  N/A       69  47  46 W11G16     N/A
* CIRCLE       N/A       71  52  51 W9         N/A
* LINDSAY DVD  N/A       68  48  49 W7         N/A
* NAVAJO       N/A       65  52  63 NW8        N/A
* SACO         N/A       72  55  55 W5         N/A
$$

MTZ028>042-056>058-200200-
SOUTHCENTRAL AND SOUTHEAST MONTANA
CITY           SKY/WX    TMP DP  RH WIND       PRES   REMARKS
BAKER          PTCLDY    68  46  45 W12       29.87R
BILLINGS       PTCLDY    73  43  34 VRB3      29.96R
LIVINGSTON     PTCLDY    70  41  35 W16       30.02R
MILES CITY     MOCLDY    72  45  38 NW10      29.87R
* LAUREL APT   PTCLDY    72  45  38 N/A        N/A
* ROUNDUP APT  PTCLDY    70  46  42 N/A        N/A
* ALZADA       N/A       68  47  47 NW6        N/A
* HYSHAM       N/A       70  43  38 NW1        N/A
* LAME DEER    N/A       65  47  52 N5         N/A
* REED POINT   N/A       73  40  30 W12G19     N/A
* ROSCOE HILL  N/A       64  38  38 S6         N/A
$$

REGIONAL REPORTS...DAKOTAS
CITY           SKY/WX    TMP DP  RH WIND       PRES   REMARKS
WILLISTON      CLEAR     68  50  53 NW8       29.77R
DICKINSON      CLOUDY    70  52  53 NW6       29.79R
BEACH          N/A       64  48  56 W8        29.84R
CROSBY         CLEAR     59  55  87 NW7       29.76R
TIOGA          CLEAR     63  54  73 NW9       29.79S
WATFORD CITY   CLEAR     63  48  58 NW5       29.77R
BISMARCK       CLOUDY    73  54  51 NW10      29.72R
GRAND FORKS    CLEAR     72  55  55 W9        29.52R
FARGO          MOCLDY    73  61  66 SW9       29.57R
BUFFALO SD     MOCLDY    66  48  52 W10       29.82R
RAPID CITY     PTCLDY    73  48  41 N13       29.88R
$$

REGIONAL REPORTS...WYOMING/IDAHO/WASHINGTON
CITY           SKY/WX    TMP DP  RH WIND       PRES   REMARKS
GILLETTE       CLEAR     64  46  52 N7        29.97R
SHERIDAN       MOCLDY    66  48  52 NW5       29.98R
CODY           PTCLDY   N/A N/A N/A N/A        N/A
YELLOWSTONE LA PTCLDY    54  43  67 CALM      30.25R
SALMON         PTCLDY    70  48  46 N8        30.01R
MULLAN PASS    MOCLDY    52  45  77 VRB5      30.19S
SAND POINT     CLOUDY    66  54  65 N5        30.02S
SPOKANE        MOCLDY    73  46  38 SW9       30.03S
$$

REGIONAL REPORTS...ALBERTA
CITY           SKY/WX    TMP DP  RH WIND       PRES   REMARKS
CALGARY        FAIR      68  37  32 W18G25    29.83S
LETHBRIDGE     PTCLDY    68  41  38 W26G33    29.84R
MEDICINE HAT   FAIR      70  50  49 S7        29.76S
EDMONTON       CLOUDY    66  43  43 NW7       29.75R
WATERTON GATE  N/A       61  41  48 W16G25     N/A
CARDSTON       N/A       64  43  47 W18G30     N/A
MILK RIVER     N/A       66  41  40 W20G29     N/A
$$

REGIONAL REPORTS...SASKATCHEWAN
CITY           SKY/WX    TMP DP  RH WIND       PRES   REMARKS
SWIFT CURRENT  CLEAR     64  46  52 W6        29.78R
REGINA         FAIR      61  52  72 W7        29.74R
VAL MARIE      N/A       63  46  54 N7         N/A
ASSINIBOIA     N/A       63  48  58 NW3        N/A
CORONACH       N/A       59  50  72 W7         N/A

$$




USA.gov is the U.S. government's official web portal to all federal, state and local government web resources and services.